DMSP 5D-2 F11 DEB, 28327

Orbit data source: Space-Track

DMSP 5D-2 F11 DEB, 28327 is space debris in SSO originally from a launch on Thu, 28 Nov 1991 UTC launched from the Air Force Western Test Range (AFWTR). Debris objects in space refer to the collection of defunct objects orbiting the Earth. Examples of debris include non-operational satellites, rocket bodies, and fragments generated from explosions, collisions, or faulty payload assembly.

Loading next visibility...
Identifier
28327, 1991-082AQ
Orbit
SSO
Country
Flag of USUS
Related business
Manufacturer
Unknown
Mission
Spacecraft
Bus & Motor
Unknown
Mass
Unknown
Launch date (UTC)
1991-11-28 (34 years ago)
Launch vehicle
Unknown
Launch site
Air Force Western Test Range (AFWTR)
Object type
Payload
Rocket body
Debris
Shape & HBR
Unknown shape, 0.1 m
Radar Cross Section
Small (<0.1 m²)

Expand to show TLE details & history
Last TLE update: 1 day ago

TLE from 1 day ago
0 DMSP 5D-2 F11 DEB
1 28327U 91082AQ  26120.48609178  .00006082  00000-0  15919-2 0  9999
2 28327  98.6699 211.5464 0023756 117.4993 304.6994 14.49524826669653
Epoch: 2026-04-30T11:39Z
TLE epoch observation values (Epoch: 2026-04-30T11:39:58.329Z)
Latitude
60.86525°
Longitude
162.33192°
Altitude
727.98 km
Speed
7.502 km/s
True Right ascension
13h 03m 01s
True Declination
60° 43' 05"
Sunlit
Object was in daylight at epoch
Visualization orbit readout
Latitude
Unknown
Longitude
Unknown
Altitude
Unknown
Speed
Unknown
Apparent Right ascension
Unknown
Apparent Declination
Unknown
Sunlit
N/A
Visualization observer readout
Local Sidereal Time
23:07:29
Azimuth
Unknown
Elevation
Unknown
Doppler factor
Unknown
Orbital elements
Apogee altitude
741.191 km
Perigee altitude
707.446 km
Semi-major axis
7,102.455 km
Eccentricity
0.00238
Inclination
98.6699°
RAAN
211.5464°
Arg. of periapsis
117.4993°
True anomaly
304.47521°
Mean anomaly
304.6994°
Eccentric anomaly
304.58734°
Mean motion
3.62602 °/min
Orbital period
99.28 mins
BSTAR
0.0015919
Loading maneuver chart data...
Computing Atmospheric mass density...

Documentation

Showing up to 5 results
|